Regional Weather Roundup
Issued by NWS Newport/Morehead, NC

Current Version | Previous Version | Text Only | Print | Product List | Glossary On
Versions: 1 2 3 4 5 6 7 8 9 10 11 12 13 14 15 16 17 18 19 20 21 22 23 24 25 26 27 28 29 30 31 32 33 34 35 36 37 38 39 40 41 42 43 44 45 46 47 48 49 50
000 ASUS42 KMHX 300510 RWRMHX WEATHER ROUNDUP FOR EASTERN NORTH CAROLINA NATIONAL WEATHER SERVICE NEWPORT/MOREHEAD CITY NC 100 AM EDT THU OCT 30 2014 NOTE: "FAIR" INDICATES FEW OR NO CLOUDS BELOW 12,000 FEET WITH NO SIGNIFICANT WEATHER AND/OR OBSTRUCTIONS TO VISIBILITY NCZ015>017-031-032-045>047-102-103-300600- NORTH COAST CITY SKY/WX TMP DP RH WIND PRES REMARKS EDENTON LGT RAIN 57 56 97 NE8 29.96S ELIZABETH CITY CLOUDY 58 52 80 N16G24 29.96F KITTY HAWK DRIZZLE 60 58 94 N14G21 29.95S MANTEO CLOUDY 60 58 93 N16 29.95F $$ NCZ045>047-081-094-103-104-300600- CENTRAL COAST CITY SKY/WX TMP DP RH WIND PRES REMARKS FRISCO CLOUDY 71 67 87 W9 29.92F SWANQUARTER N/A 64 N/A N/A VRB3G12 29.91S $$ NCZ095-097-098-100-101-300600- SOUTHERN COAST CITY SKY/WX TMP DP RH WIND PRES REMARKS BEAUFORT CLOUDY 71 67 87 W12 29.93S CEDAR ISLAND N/A 68 N/A N/A W7G14 29.97S JACKSONVILLE LGT RAIN 66 65 96 NW3 29.94S PINEY ISLAND CLOUDY 71 65 81 NW5 29.93R WILMINGTON CLOUDY 68 65 90 CALM 29.93F $$ NCZ011>013-027>030-043-044-078>080-089-090>093-098-300600- COASTAL PLAIN CITY SKY/WX TMP DP RH WIND PRES REMARKS AHOSKIE NOT AVBL CLINTON CLOUDY 61 60 96 N5 29.98S ELIZABETHTOWN DRIZZLE 63 61 93 N3 29.97R GOLDSBORO CLOUDY 61 60 98 N1 29.96S GREENVILLE DRIZZLE 59 59 100 NW5 29.99R HAVELOCK DRIZZLE 68 64 87 W7 29.95R KENANSVILLE LGT RAIN 61 58 91 N7 29.98R KINSTON LGT RAIN 61 58 91 NW8 29.98R NEW BERN LGT RAIN 66 62 87 N5 29.95S RICHLANDS CLOUDY 66 63 88 NW6 29.95R ROCKY MOUNT CLOUDY 58 56 93 N6 30.00S WASHINGTON CLOUDY 60 57 91 N3 29.95F WHITEVILLE CLOUDY 66 64 92 NW3 29.95R $$ AMZ130-135-150-152-154-156-158-170-250-252-270-ANZ085-086-088-633-658-670-300600- MARINE OBSERVATIONS STATION/POSITION TIME TEMP WIND PRES WAVE SWELL AIR SEA DIR/SP/G HT/PER HT/PER (UTC) (F) (DEG/KT/KT) (MB) (FT/S) (FT/S) CHESAPEAKE LIGHT 0400 60 10/ 26/ 28 1015.1 64 E VA BEACH 0500 62 67 10/ 19/ 25 1013.0 4/ 4 DUCK 0500 60 68 340/ 17/ 23 1013.7 2 E DUCK NOT AVBL 10 NE DUCK 0400 67 N/A 4/ 4 OREGON INLET 0500 65 68 350/ 13/ 19 1013.7 13E OREGON INLT 0500 70 N/A 3/ 7 HATTERAS CG 0500 72 72 230/ 8/ 13 1013.5 DIAMOND BUOY 0500 75 230/ 16/ 19 1013.1 4/ 5 17 S OCRACOKE 0400 VRB 17/ 19 1013.3 CAPE LOOKOUT 0400 72 230/ 8/ 10 1013.5 BEAUFORT LAB 0500 72 71 250/ 6/ 12 1012.9 30 SE NEW RIVER 0400 74 74 240/ 16/ 17 1013.1 5 SE WRIGHTSVLE 0400 69 71 260/ 10/ 12 N/A 225 S CAPE HAT 0448 75 76 210/ 6/ 10 1016.3 2/ 9 2/ 9 41 SE CHARLESTON 0500 77 77 220/ 14/ 16 1013.9 2/ 4 2/ 8 $$

USA.gov is the U.S. government's official web portal to all federal, state and local government web resources and services.